Temperature
16 16 16 16 16 17 16 17 17 17 18 17 17 16 16 16 16 16 16 16 16 16 16 16 16 16 16 16 16 15 15 15 15 15 15 15 15 15
16 16 16 16 16 16 16 16 16 17 17 17 16 16 16 15 16 15 15 16 16 16 16 16 16 16 16 15 15 15 15 15 15 15 15 15 15 14
16 16 16 16 16 16 16 16 16 16 16 16 16 16 16 15 15 15 15 15 15 16 16 16 15 15 15 15 15 15 15 15 15 15 15 15 14 14
16 16 16 16 16 16 16 16 16 16 16 16 16 16 15 15 15 15 15 15 15 15 15 15 15 15 15 15 15 15 15 15 15 14 14 14 14 14
16 16 16 16 16 16 16 16 16 16 15 15 16 16 15 15 15 15 15 15 15 15 15 15 15 15 15 15 15 15 15 14 14 14 14 14 14 14
16 16 16 15 15 15 15 15 15 15 15 15 16 16 15 15 15 15 15 15 15 15 15 15 15 15 15 15 15 15 14 14 14 14 14 14 14 14
16 16 15 15 15 15 15 15 15 15 15 15 16 16 15 15 15 15 15 15 15 15 15 15 15 15 15 14 14 14 14 14 14 14 13 13 13 13
15 15 15 15 15 15 15 15 15 15 15 15 15 15 14 15 14 14 14 15 15 15 14 14 14 14 14 14 14 14 14 14 13 13 13 13 13 13
15 15 15 15 15 15 15 15 15 15 15 14 14 14 14 14 14 14 14 14 14 14 14 14 14 14 14 14 14 14 14 14 13 13 13 13 13 13
14 14 14 15 14 14 14 14 14 14 14 14 14 14 14 14 14 14 14 14 14 14 14 14 14 14 14 13 13 13 13 13 13 13 13 13 13 13
14 14 14 14 14 14 14 13 13 13 14 14 14 14 14 14 14 13 13 13 14 14 14 13 13 13 13 13 13 13 13 13 13 13 13 13 13 13
14 13 14 14 14 14 13 13 13 13 13 13 13 13 13 13 13 13 13 13 13 14 13 13 13 13 13 13 13 13 13 13 12 12 12 12 12 12
13 13 13 13 13 13 13 13 13 13 13 13 13 13 13 13 13 13 13 12 13 13 13 12 12 12 12 12 12 12 12 12 12 12 12 12 12 12
13 13 13 13 13 13 13 13 13 13 13 13 13 13 13 13 13 12 12 12 12 12 12 12 12 12 12 12 12 12 12 12 12 12 12 12 12 12
12 12 12 12 12 12 12 12 12 12 12 12 12 12 12 12 12 12 12 12 12 12 12 11 11 11 11 11 11 11 11 11 11 11 11 11 11 11
11 12 12 12 12 12 12 11 11 11 11 11 11 12 12 12 12 11 11 11 11 11 11 11 11 11 11 11 11 11 11 11 11 11 11 11 11 11
11 11 11 11 11 11 11 11 11 11 11 11 11 11 11 11 11 11 11 11 11 11 11 11 11 11 10 10 10 11 11 11 10 10 10 10 10 11
11 11 11 11 11 11 11 11 11 11 11 10 10 10 10 10 10 10 10 10 10 10 10 10 10 10 10 10 10 10 10 10 10 10 10 10 10 10
11 11 11 10 10 10 10 10 10 10 10 10 10 10 10 10 10 9 9 9 9 10 10 9 9 9 9 10 10 10 9 9 9 9 9 9 10 10
10 10 10 10 10 10 10 10 10 10 10 9 9 9 9 9 9 9 9 9 9 9 9 9 9 9 8 9 9 9 9 9 9 9 9 9 9 9
10 10 10 9 9 9 9 9 9 9 9 9 9 9 8 8 8 8 8 8 8 8 8 8 8 8 8 8 8 9 9 8 8 8 8 8 8 9
9 9 9 9 9 9 8 8 8 8 8 8 8 8 8 8 8 8 7 7 7 8 8 8 8 8 8 8 8 8 8 8 8 8 8 8 7 8
9 9 9 8 8 8 8 8 8 8 8 8 7 7 7 7 7 7 7 7 7 7 7 7 7 7 7 7 7 8 8 7 7 7 8 8 7 7
Wind_Speed
4 4 4 4 4 4 4 4 5 4 4 3 3 3 4 4 4 6 6 7 9 9 9 9 10 11 11 11 11 11 11 11 11 11 10 10 10 10
4 4 4 4 3 4 4 4 5 5 5 3 3 3 2 4 5 6 6 7 10 11 10 10 10 10 10 11 11 11 11 11 10 10 9 10 10 10
5 5 5 5 4 4 5 5 5 5 5 5 4 3 4 5 4 6 7 8 8 12 12 11 11 11 11 11 11 11 11 10 10 10 10 9 10 10
6 6 6 5 5 5 5 5 5 5 6 6 5 4 5 5 5 6 6 7 7 9 12 12 12 12 12 12 12 11 11 11 10 10 10 10 10 10
7 7 7 6 6 5 6 6 5 6 6 7 6 5 5 5 5 6 7 6 7 8 12 14 14 14 13 13 13 13 12 11 11 11 11 11 11 11
6 6 7 7 7 7 6 6 6 6 6 7 7 6 5 5 5 6 6 5 6 6 6 8 11 14 15 15 14 14 13 12 12 12 12 12 12 12
6 6 6 6 5 6 6 6 6 6 6 7 7 6 6 5 5 6 6 6 5 5 5 6 6 7 9 13 14 13 13 13 13 13 13 13 13 13
6 6 6 6 6 6 6 6 6 8 8 7 7 6 7 6 5 6 6 6 6 4 5 6 5 6 6 8 10 12 14 14 14 14 13 13 13 13
6 6 6 5 5 6 6 8 7 7 8 8 8 8 7 6 6 7 6 7 7 5 5 7 5 6 6 7 10 12 13 14 14 14 14 14 14 15
6 6 6 6 5 6 7 6 6 6 7 8 7 8 7 6 7 8 8 8 8 6 5 7 6 6 7 6 10 12 12 13 14 15 15 15 15 15
5 5 5 5 3 5 7 7 7 6 6 6 7 7 6 7 7 7 6 7 7 6 4 6 7 6 7 7 7 13 14 15 15 15 16 16 15 14
4 4 3 3 3 4 6 7 8 7 6 6 7 9 9 8 9 8 7 7 7 7 4 5 7 6 6 6 6 7 10 13 15 16 16 16 15 12
4 4 3 2 3 5 6 6 7 8 8 8 7 6 7 7 7 7 7 8 8 8 5 5 6 6 7 7 7 6 7 7 9 11 15 17 16 14
4 4 2 1 3 5 5 5 7 8 7 6 6 6 6 6 5 6 7 8 8 8 7 6 7 7 8 8 8 6 7 7 7 7 8 10 15 19
4 3 3 3 4 5 5 6 6 6 6 6 6 6 6 5 6 5 6 7 8 8 7 6 7 7 8 9 9 7 7 6 7 7 7 7 8 8
4 3 4 5 5 5 4 5 5 5 5 6 6 6 5 5 5 5 5 5 6 5 5 6 7 8 8 9 8 8 7 7 6 7 7 8 8 9
3 3 3 3 3 4 4 4 5 4 5 5 6 6 5 5 4 4 4 5 5 5 5 4 6 7 8 8 8 8 7 7 7 6 7 8 8 8
3 3 3 3 4 4 5 5 4 4 4 5 5 5 6 6 5 4 4 5 5 5 5 5 4 5 5 6 5 7 7 7 7 6 7 8 8 7
3 3 3 4 4 4 5 5 5 4 4 5 5 5 6 6 5 5 5 5 5 5 5 5 4 4 6 8 6 4 6 7 7 7 7 8 8 8
3 3 3 4 4 4 5 5 5 4 4 4 5 5 5 5 5 5 5 6 6 6 6 5 5 5 6 8 8 8 7 7 7 7 7 7 8 7
4 4 4 4 4 4 4 4 4 4 5 4 4 4 4 5 5 5 5 5 6 6 6 6 5 5 6 7 7 7 6 4 6 7 8 8 8 7
4 4 4 4 5 5 4 4 5 5 5 4 4 4 4 4 4 5 6 6 5 6 7 6 5 5 6 6 7 7 7 6 5 6 8 8 7 7
4 4 4 4 4 4 5 5 5 5 5 5 4 4 4 4 5 5 6 6 6 6 6 6 6 5 6 6 6 7 7 7 6 6 6 6 8 10
Wind_Direction
244 236 242 248 246 246 244 252 261 266 267 248 230 212 219 223 199 225 227 203 212 220 227 231 231 229 227 227 228 230 232 235 235 234 236 241 242 239
248 256 254 250 249 246 243 244 252 262 272 274 261 246 240 242 206 235 235 205 210 216 224 228 229 228 229 230 231 230 232 233 231 232 236 242 245 242
246 241 242 254 252 247 241 242 243 249 256 264 262 250 239 251 244 246 242 238 221 206 217 225 228 230 231 232 231 230 230 229 229 232 235 239 243 241
248 247 245 238 237 252 253 249 248 248 253 262 262 254 243 244 246 251 253 248 245 202 207 218 224 228 231 231 229 226 224 224 226 230 234 236 238 240
245 246 247 244 243 244 249 252 251 248 247 255 258 259 256 252 251 250 251 252 252 220 203 211 218 224 227 227 226 224 222 222 225 228 233 236 237 239
241 244 247 245 244 245 244 248 254 257 250 253 256 255 253 250 251 256 252 243 252 245 227 223 216 218 222 222 222 221 221 223 227 232 235 237 236 236
245 244 245 250 263 259 259 253 252 253 257 258 259 259 258 258 256 258 262 259 248 248 252 242 226 230 223 217 218 218 221 225 229 231 234 237 237 236
255 254 245 237 239 237 255 270 272 258 260 263 262 265 267 267 272 267 269 267 266 245 256 257 247 247 240 230 205 209 219 223 225 228 231 235 237 240
257 259 260 252 240 246 232 228 240 246 250 257 262 262 264 268 272 269 267 270 271 269 260 262 251 252 254 234 195 204 213 219 224 228 232 235 238 241
261 261 260 264 262 262 256 249 248 245 241 244 256 262 266 271 262 262 267 263 261 254 253 265 262 261 265 250 200 200 211 221 227 230 234 236 239 242
259 259 260 264 289 287 263 256 255 255 237 222 238 249 262 261 261 264 264 264 267 262 245 263 271 271 266 256 217 200 212 221 226 230 233 235 238 242
255 253 250 267 283 274 256 257 257 259 261 243 233 237 242 238 230 244 258 262 271 270 255 259 268 273 270 256 246 230 225 222 223 229 230 230 229 237
266 262 260 198 239 257 259 259 266 270 264 259 253 247 243 243 240 241 248 255 261 266 268 258 268 266 267 272 266 253 249 247 235 235 230 224 223 227
276 273 277 215 235 247 255 268 273 270 266 264 262 261 259 259 259 258 251 253 259 265 269 265 266 267 269 271 274 264 258 254 250 249 244 224 226 226
286 314 300 278 260 250 240 254 262 266 270 272 273 272 271 275 276 268 255 249 253 253 253 257 263 268 266 268 271 273 272 263 253 253 249 245 243 238
278 261 241 248 255 274 269 255 258 269 275 277 279 283 285 281 275 277 274 268 265 264 255 252 257 265 266 269 269 269 269 268 266 264 259 258 250 242
294 271 267 267 265 267 272 275 278 273 267 272 278 283 284 286 286 287 280 275 270 273 281 275 267 261 260 263 266 269 275 276 274 269 263 262 255 246
305 300 299 289 283 281 279 280 280 286 293 292 287 285 284 282 281 278 273 272 272 275 280 286 285 283 279 271 255 266 273 276 278 273 266 265 266 259
285 299 304 305 300 297 294 292 295 298 299 293 289 288 287 287 287 286 283 282 281 283 285 284 277 271 275 280 283 252 273 279 278 273 271 271 273 273
300 310 312 310 313 313 309 306 304 300 296 291 290 291 290 290 290 286 284 289 288 290 290 284 278 275 273 280 285 287 266 270 277 279 280 281 279 279
329 332 330 327 328 324 322 321 321 316 313 306 299 292 290 287 286 289 289 292 288 291 291 292 297 283 279 277 275 282 291 275 269 276 281 278 278 276
337 338 336 333 331 331 330 326 325 325 317 310 308 305 302 299 294 291 291 290 287 287 290 292 288 282 280 280 284 289 294 297 281 260 262 265 272 274
345 341 338 335 332 332 330 327 325 325 325 326 326 322 318 314 311 303 292 287 287 291 295 294 293 289 285 282 282 286 289 291 291 290 281 252 242 253
Height
1542 1542 1542 1542 1542 1543 1543 1543 1543 1542 1541 1541 1541 1541 1540 1540 1540 1540 1540 1540 1540 1540 1540 1540 1541 1541 1541 1542 1542 1542 1543 1543 1544 1544 1544 1544 1544 1544
1540 1540 1540 1540 1541 1541 1541 1541 1541 1541 1540 1539 1539 1539 1538 1539 1538 1538 1537 1537 1536 1536 1537 1537 1537 1537 1537 1538 1538 1538 1539 1539 1539 1539 1539 1540 1540 1540
1538 1538 1537 1537 1538 1539 1539 1538 1538 1538 1538 1537 1537 1537 1535 1535 1535 1535 1535 1534 1534 1533 1533 1533 1533 1533 1533 1533 1534 1534 1534 1534 1535 1535 1535 1535 1536 1536
1535 1535 1535 1535 1535 1535 1536 1536 1536 1535 1535 1535 1535 1534 1533 1532 1532 1531 1531 1531 1530 1529 1529 1529 1529 1529 1529 1529 1529 1529 1530 1530 1530 1530 1530 1531 1531 1532
1532 1532 1532 1532 1532 1532 1532 1533 1533 1533 1532 1532 1532 1532 1531 1530 1529 1528 1528 1527 1527 1526 1525 1524 1524 1524 1524 1524 1524 1525 1525 1525 1525 1525 1526 1526 1527 1527
1528 1528 1529 1529 1529 1529 1529 1528 1529 1529 1529 1529 1528 1528 1527 1526 1526 1525 1525 1524 1523 1523 1522 1521 1520 1520 1520 1520 1520 1520 1520 1520 1520 1521 1521 1521 1522 1523
1525 1525 1525 1525 1525 1525 1525 1525 1525 1525 1525 1525 1525 1525 1524 1523 1523 1522 1521 1520 1520 1519 1518 1518 1517 1517 1516 1515 1515 1515 1515 1515 1515 1515 1516 1516 1517 1518
1521 1521 1521 1521 1521 1520 1520 1521 1521 1521 1521 1521 1520 1520 1519 1519 1518 1518 1518 1517 1516 1516 1515 1514 1514 1513 1512 1511 1511 1510 1510 1510 1510 1510 1511 1511 1512 1512
1518 1517 1518 1518 1517 1517 1516 1516 1516 1516 1516 1516 1516 1515 1515 1515 1514 1513 1513 1512 1511 1511 1511 1510 1510 1509 1508 1507 1506 1506 1506 1506 1505 1505 1505 1506 1506 1507
1513 1513 1513 1513 1513 1513 1513 1512 1512 1511 1511 1511 1510 1510 1510 1510 1509 1509 1508 1508 1507 1506 1506 1505 1505 1504 1504 1503 1501 1501 1501 1500 1500 1500 1500 1500 1500 1501
1509 1509 1509 1508 1508 1508 1508 1508 1507 1507 1506 1506 1505 1505 1504 1505 1504 1504 1504 1504 1503 1503 1502 1501 1500 1500 1499 1498 1497 1496 1495 1495 1495 1495 1495 1494 1494 1495
1505 1505 1504 1504 1504 1504 1504 1504 1503 1502 1502 1501 1500 1500 1500 1499 1499 1499 1499 1499 1498 1498 1497 1496 1496 1495 1494 1493 1493 1492 1491 1490 1490 1490 1489 1489 1489 1489
1501 1502 1501 1500 1500 1499 1499 1499 1498 1498 1497 1497 1497 1496 1495 1495 1494 1493 1493 1493 1493 1492 1493 1491 1491 1490 1489 1488 1488 1487 1487 1486 1485 1484 1484 1483 1483 1484
1497 1497 1497 1496 1496 1495 1494 1494 1493 1493 1493 1492 1492 1491 1490 1490 1489 1488 1487 1487 1487 1487 1486 1486 1485 1485 1484 1483 1482 1482 1481 1480 1479 1479 1478 1477 1477 1478
1493 1493 1492 1492 1491 1491 1489 1489 1488 1488 1488 1487 1486 1486 1485 1484 1483 1483 1482 1481 1481 1481 1481 1480 1480 1479 1479 1478 1477 1476 1476 1475 1474 1474 1473 1472 1472 1472
1490 1489 1488 1488 1487 1487 1486 1484 1484 1483 1483 1482 1482 1481 1480 1479 1478 1478 1477 1477 1476 1476 1475 1474 1474 1474 1473 1473 1473 1471 1471 1470 1469 1468 1468 1467 1466 1466
1487 1486 1485 1485 1484 1483 1482 1482 1480 1479 1478 1478 1477 1476 1475 1474 1473 1473 1472 1471 1471 1470 1469 1469 1469 1469 1468 1468 1467 1466 1466 1465 1464 1463 1462 1461 1460 1460
1485 1484 1483 1482 1481 1480 1479 1478 1477 1475 1475 1474 1473 1472 1471 1470 1469 1468 1468 1467 1466 1465 1464 1464 1464 1463 1463 1462 1462 1461 1460 1459 1458 1457 1456 1455 1454 1454
1483 1482 1481 1480 1479 1478 1476 1475 1473 1472 1470 1469 1468 1468 1467 1466 1465 1464 1463 1463 1462 1461 1460 1460 1459 1458 1458 1456 1455 1455 1454 1453 1452 1451 1451 1450 1448 1448
1482 1480 1479 1478 1476 1475 1473 1472 1470 1468 1467 1465 1464 1464 1463 1462 1461 1460 1459 1458 1458 1457 1456 1456 1455 1454 1453 1452 1450 1448 1448 1448 1447 1446 1445 1444 1443 1442
1480 1478 1477 1476 1474 1472 1470 1469 1467 1465 1464 1462 1461 1460 1459 1458 1457 1456 1455 1454 1454 1452 1452 1451 1450 1450 1448 1447 1446 1444 1443 1443 1441 1440 1439 1439 1437 1436
1478 1476 1475 1473 1472 1470 1468 1466 1464 1462 1461 1459 1458 1457 1455 1454 1454 1453 1452 1451 1450 1449 1448 1447 1447 1445 1444 1443 1441 1439 1438 1437 1436 1435 1434 1434 1432 1431
1476 1474 1473 1471 1470 1468 1466 1464 1462 1461 1459 1457 1455 1454 1453 1451 1451 1450 1449 1448 1446 1445 1445 1443 1442 1441 1440 1439 1438 1436 1434 1433 1432 1430 1430 1428 1427 1426